{"data":{"norad_id":68006,"epoch":"2026-09-19T16:49:47.572320Z","epoch_age_seconds":128559,"freshness":"FRESH","line1":"1 68006U 26039W   26262.70124505  .00018473  00000+0  67858-3 0  9991","line2":"2 68006  43.0048  33.3717 0003287 297.6602  62.3916 15.27605281 31375","mean_motion":15.27605281,"eccentricity":0.0003287,"inclination_deg":43.0048,"raan_deg":33.3717,"arg_perigee_deg":297.6602,"mean_anomaly_deg":62.3916,"bstar":0.00067858,"rev_number":3137,"period_min":94.265188652487,"perigee_km":480.71814968747,"apogee_km":485.22864366225,"semimajor_km":6861.1103966749,"source":"CELESTRAK","updated_at":"2026-09-20T09:00:43.739025Z"}}